2024/02/11 00:00:00, 0.0, 0.2
2024/02/11 00:10:00, 0.0,-0.0
2024/02/11 00:20:00, 0.0,-0.2
2024/02/11 00:30:00, 0.0,-0.3
2024/02/11 00:40:00, 0.0,-0.2
2024/02/11 00:50:00, 0.0,-0.4
2024/02/11 01:00:00, 0.0,-0.3
2024/02/11 01:10:00, 0.0,-0.6
2024/02/11 01:20:00, 0.0,-0.8
2024/02/11 01:30:00, 0.0,-0.7
2024/02/11 01:40:00, 0.0,-0.7
2024/02/11 01:50:00, 0.0,-0.5
2024/02/11 02:00:00, 0.0,-0.3
2024/02/11 02:10:00, 0.0,-0.5
2024/02/11 02:20:00, 0.0,-0.7
2024/02/11 02:30:00, 0.0,-0.8
2024/02/11 02:40:00, 0.0,-0.7
2024/02/11 02:50:00, 0.0,-0.5
2024/02/11 03:00:00, 0.0,-0.9
2024/02/11 03:10:00, 0.0,-0.2
2024/02/11 03:20:00, 0.0,-0.0
2024/02/11 03:30:00, 0.0, 0.1
2024/02/11 03:40:00, 0.0,-0.0
2024/02/11 03:50:00, 0.0,-0.3
2024/02/11 04:00:00, 0.0,-0.2
2024/02/11 04:10:00, 7.6,-0.4
2024/02/11 04:20:00, 7.8, 0.3
2024/02/11 04:30:00, 7.7,-0.1
2024/02/11 04:40:00, 7.5, 0.1
2024/02/11 04:50:00, 7.6, 0.3
2024/02/11 05:00:00, 7.7, 0.2
2024/02/11 05:10:00, 7.7,-0.2
2024/02/11 05:20:00, 7.7,-0.5
2024/02/11 05:30:00, 7.4,-0.8
2024/02/11 05:40:00, 7.4,-0.3
2024/02/11 05:50:00, 7.5,-0.7
2024/02/11 06:00:00, 7.6,-0.6
2024/02/11 06:10:00, 7.5,-0.4
2024/02/11 06:20:00, 7.4,-0.3
2024/02/11 06:30:00,---,-0.1
2024/02/11 06:40:00, 0.0,-0.2
2024/02/11 06:50:00, 7.2,-0.2
2024/02/11 07:00:00, 7.2,-0.0
2024/02/11 07:10:00, 7.2,-0.0
2024/02/11 07:20:00, 7.2, 0.2
2024/02/11 07:30:00, 7.3, 0.2
2024/02/11 07:40:00, 7.3, 0.3
2024/02/11 07:50:00, 7.1, 0.3
2024/02/11 08:00:00,---, 0.3
2024/02/11 08:10:00, 0.0, 0.5
2024/02/11 08:20:00, 0.0, 0.9
2024/02/11 08:30:00, 0.0, 1.1
2024/02/11 08:40:00, 0.0, 1.5
2024/02/11 08:50:00, 0.0, 2.1
2024/02/11 09:00:00, 0.0, 1.7
2024/02/11 09:10:00, 7.0, 1.9
2024/02/11 09:20:00,---, 2.2
2024/02/11 09:30:00, 7.2, 2.2
2024/02/11 09:40:00, 7.6, 2.5
2024/02/11 09:50:00, 7.8, 3.0
2024/02/11 10:00:00, 7.8, 2.9
2024/02/11 10:10:00, 7.7, 3.3
2024/02/11 10:20:00, 7.6, 3.2
2024/02/11 10:30:00, 7.6, 3.2
2024/02/11 10:40:00, 7.4, 3.0
2024/02/11 10:50:00, 7.4, 3.1
2024/02/11 11:00:00, 7.2, 3.2
2024/02/11 11:10:00, 7.1, 3.5
2024/02/11 11:20:00, 6.9, 3.5
2024/02/11 11:30:00, 6.9, 3.4
2024/02/11 11:40:00, 6.9, 3.5
2024/02/11 11:50:00, 6.8, 3.7
2024/02/11 12:00:00, 6.7, 3.6
2024/02/11 12:10:00, 6.6, 3.7
2024/02/11 12:20:00, 6.3, 3.3
2024/02/11 12:30:00, 6.2, 3.7
2024/02/11 12:40:00, 5.9, 3.3
2024/02/11 12:50:00, 5.7, 3.3
2024/02/11 13:00:00, 5.4, 3.3
2024/02/11 13:10:00, 5.4, 3.0
2024/02/11 13:20:00, 5.4, 3.1
2024/02/11 13:30:00, 5.0, 2.9
2024/02/11 13:40:00, 5.0, 2.8
2024/02/11 13:50:00, 4.9, 3.0
2024/02/11 14:00:00, 4.4, 2.8
2024/02/11 14:10:00, 4.5, 2.8
2024/02/11 14:20:00,---, 2.7
2024/02/11 14:30:00, 0.0, 2.5
2024/02/11 14:40:00, 0.0, 2.4
2024/02/11 14:50:00,---, 2.0
2024/02/11 15:00:00, 0.0, 2.0
2024/02/11 15:10:00, 0.0, 1.9
2024/02/11 15:20:00, 0.0, 1.8
2024/02/11 15:30:00, 0.0, 1.9
2024/02/11 15:40:00, 0.0, 2.2
2024/02/11 15:50:00, 0.0, 2.0
2024/02/11 16:00:00, 0.0, 2.0
2024/02/11 16:10:00, 0.0, 2.7
2024/02/11 16:20:00, 0.0, 2.1
2024/02/11 16:30:00, 0.0, 1.9
2024/02/11 16:40:00, 0.0, 1.9
2024/02/11 16:50:00, 0.0, 1.8
2024/02/11 17:00:00, 0.0, 1.5
2024/02/11 17:10:00, 0.0, 1.1
2024/02/11 17:20:00, 0.0, 1.2
2024/02/11 17:30:00, 0.0, 0.8
2024/02/11 17:40:00, 0.0, 1.4
2024/02/11 17:50:00, 0.0, 1.2
2024/02/11 18:00:00, 0.0, 1.1
2024/02/11 18:10:00, 0.0, 0.9
2024/02/11 18:20:00, 0.0, 0.8
2024/02/11 18:30:00, 0.0, 0.5
2024/02/11 18:40:00, 0.0, 0.7
2024/02/11 18:50:00, 0.0, 0.7
2024/02/11 19:00:00, 0.0, 0.9
2024/02/11 19:10:00, 0.0, 0.6
2024/02/11 19:20:00, 0.0, 0.4
2024/02/11 19:30:00, 0.0, 0.4
2024/02/11 19:40:00, 0.0, 0.4
2024/02/11 19:50:00, 0.0, 0.3
2024/02/11 20:00:00, 0.0, 0.3
2024/02/11 20:10:00, 0.0,-0.0
2024/02/11 20:20:00, 0.0,-0.0
2024/02/11 20:30:00, 0.0,-0.1
2024/02/11 20:40:00, 0.0,-0.0
2024/02/11 20:50:00, 0.0,-0.0
2024/02/11 21:00:00, 0.0, 0.1
2024/02/11 21:10:00, 0.0, 0.2
2024/02/11 21:20:00, 0.0, 0.2
2024/02/11 21:30:00, 0.0, 0.1
2024/02/11 21:40:00, 0.0,-0.2
2024/02/11 21:50:00, 0.0,-0.2
2024/02/11 22:00:00, 0.0,-0.1
2024/02/11 22:10:00, 0.0, 0.1
2024/02/11 22:20:00, 0.0,-0.0
2024/02/11 22:30:00, 0.0, 0.4
2024/02/11 22:40:00, 0.0, 0.1
2024/02/11 22:50:00, 0.0,-0.2
2024/02/11 23:00:00, 0.0, 0.1
2024/02/11 23:10:00, 0.0, 0.1
2024/02/11 23:20:00, 0.0, 0.2
2024/02/11 23:30:00, 0.0, 0.1
2024/02/11 23:40:00, 0.0, 0.1
2024/02/11 23:50:00, 0.0,-0.0
